Regional Weather Roundup
Issued by NWS Boston, MA

Home | Current Version | Previous Version | Text Only | Print | Product List | Glossary On
Versions: 1 2 3 4 5 6 7 8 9 10 11 12 13 14 15 16 17 18 19 20 21 22 23 24 25 26 27 28 29 30 31 32 33 34 35 36 37 38 39 40 41 42 43 44 45 46 47 48 49 50
000
ASUS41 KBOX 041410
RWRBOX

REGIONAL WEATHER ROUNDUP
NATIONAL WEATHER SERVICE TAUNTON MA
1000 AM EDT SAT JUL 04 2015

NOTE:  "FAIR" INDICATES FEW OR NO CLOUDS BELOW 12,000 FEET WITH NO
SIGNIFICANT WEATHER AND/OR OBSTRUCTIONS TO VISIBILITY.  THE FOLLOWING
OBSERVATION LOCATIONS DO NOT REPORT PRESENT WEATHER...PROVINCETOWN...
SMITHFIELD...BLOCK ISLAND...KEENE...AND OXFORD.

MAZALL-041500-
EASTERN MASSACHUSETTS

CITY           SKY/WX    TMP DP  RH WIND       PRES   REMARKS
BOSTON         CLOUDY    68  60  75 CALM      30.00S
BEVERLY        CLOUDY    70  60  70 CALM      29.99S
LAWRENCE       CLOUDY    67  58  72 CALM      30.01F
BEDFORD        CLOUDY    68  59  73 CALM      29.99S
BLUE HILL        N/A     67  58  72 VRB3      30.00S
NORWOOD        CLOUDY    70  60  70 CALM      29.99F
MARSHFIELD     CLOUDY    72  61  68 SE5       30.00F
PLYMOUTH       CLOUDY    71  57  61 S3        30.00F
TAUNTON        CLOUDY    71  58  63 SE3       29.98F
NEW BEDFORD    CLOUDY    71  57  61 SE6       29.98F
$$

MAZALL-041500-
CAPE COD AND THE ISLANDS

CITY           SKY/WX    TMP DP  RH WIND       PRES   REMARKS
FALMOUTH       CLOUDY    70  55  60 SE8       30.00S
HYANNIS        CLOUDY    70  53  54 SE5       29.98F
CHATHAM        CLOUDY    69  54  58 SE3       30.01F
PROVINCETOWN   CLOUDY    73  14  10 S6        30.00F
NANTUCKET      CLOUDY    64  58  80 E10       30.00F
MARTHAS VNYRD  CLOUDY    70  56  61 SE9       29.99F
$$

MAZALL-041500-
CENTRAL AND WESTERN MASSACHUSETTS

CITY           SKY/WX    TMP DP  RH WIND       PRES   REMARKS
WORCESTER      CLOUDY    66  52  60 SW5       30.01S
FITCHBURG      CLOUDY    67  57  70 CALM      30.01S
ORANGE         CLOUDY    64  57  78 CALM      30.00S
SPRINGFIELD    CLOUDY    66  59  77 N2        29.98F
WESTFIELD      CLOUDY    65  57  75 CALM      29.99F
NORTH ADAMS    LGT RAIN  59  54  83 CALM      30.00S
PITTSFIELD     LGT RAIN  59  55  87 CALM      30.00R
$$

RIZALL-041500-
RHODE ISLAND

CITY           SKY/WX    TMP DP  RH WIND       PRES   REMARKS
PROVIDENCE     CLOUDY    69  60  73 SE3       29.99F
NEWPORT        CLOUDY    68  60  75 E5        29.98F
BLOCK ISLAND   CLOUDY    66  63  88 SE10      29.98R
SMITHFIELD     CLOUDY    70  54  56 CALM      30.00S
WESTERLY       CLOUDY    69  64  84 E6        29.98S
$$

CTZALL-041500-
CONNECTICUT

CITY           SKY/WX    TMP DP  RH WIND       PRES   REMARKS
BRADLEY INTL   CLOUDY    66  58  75 N3        29.98S
HARTFORD       CLOUDY    67  59  75 VRB6      29.98S
BRIDGEPORT     CLOUDY    69  64  84 E10       29.96F
DANBURY        CLOUDY    67  59  75 NE3       29.98F
GROTON         CLOUDY    69  61  75 E5        29.97S
NEW HAVEN      CLOUDY    70  59  68 E7        29.97S
CHESTER        NOT AVBL
MERIDEN        CLOUDY    69  61  75 N3        29.97F
WILLIMANTIC    CLOUDY    68  60  75 NE3       29.99S
OXFORD         CLOUDY    66  57  72 CALM      30.00S
$$

MEZ002-015-021-024-NHZ003-005-008-011-012-014-VTZ005-008-041500-
NORTHERN NEW ENGLAND

CITY           SKY/WX    TMP DP  RH WIND       PRES   REMARKS
PORTLAND ME    CLOUDY    67  58  72 CALM      30.00S
BANGOR ME      CLOUDY    73  54  51 S6        30.00F
CONCORD NH     CLOUDY    64  54  69 CALM      30.00F
MANCHESTER NH  CLOUDY    66  55  67 CALM      29.98F
NASHUA NH      CLOUDY    65  58  78 VRB3      30.01S
PORTSMOUTH NH  CLOUDY    65  58  76 W5        29.99S
JAFFREY NH     CLOUDY    67  57  70 S6        30.01S
KEENE NH       CLOUDY    61  54  77 CALM      30.01S
BURLINGTON VT  CLOUDY    67  55  65 CALM      29.96S
MT. WASHINGTON PTSUNNY   45  39  81 SW9         N/A
$$

NYZ052-076-041500-
EASTERN NEW YORK

CITY           SKY/WX    TMP DP  RH WIND       PRES   REMARKS
ALBANY         LGT RAIN  63  58  83 CALM      29.98R
NEW YORK CITY  CLOUDY    71  62  73 NE10      29.94S
$$

ANZALL-041500-
MARINE OBSERVATIONS

STATION/POSITION TIME  TEMP    WIND        PRES    VSBY  WAVE
                       AIR SEA DIR/SP/G                  HT/PER
                 (UTC) (F)     (DEG/KT/KT) (MB)    (MI)  (FT/S)
BOSTON BUOY      1350   62 61  150/  4/  6 1016.1F         2/ 8
BUZZARDS BAY     1300          110/  8/  9 1016.3F
NANTUCKET SOUND  1350   64 66  100/  6/  8 1015.7F         1
MASS BAY-STELLWA 1304   63 61  180/  6/  8 1015.0F  1 7/8  2/ 8
ISLE OF SHOALS   1300   61     220/  3/  4 1015.3R
S OF BLOCK IS    1308      63                N/A           4/ 8
$$

......................KEY.........................
  SKY/WX - SKY CONDITION/PRESENT WEATHER
  TMP    - TEMPERATURE IN FAHRENHEIT
  DWPT   - DEWPOINT IN FAHRENHEIT
  RH     - RELATIVE HUMIDITY IN PERCENT
  WIND   - DIRECTION AND SPEED IN MPH
  PRES   - MEAN SEA LEVEL PRESSURE IN INCHES OF HG
  WCI    - WIND CHILL INDEX
  VSB    - VISIBILITY IN MILES
  HX     - HEAT INDEX
  TC     - TEMPERATURE IN CELSIUS
  VRB    - VARIABLE WIND DIRECTION
  N/A    - NOT AVAILABLE



USA.gov is the U.S. government's official web portal to all federal, state and local government web resources and services.